Time,TemperatureF,DewpointF,PressureIn,WindDirection,WindDirectionDegrees,WindSpeedMPH,WindSpeedGustMPH,Humidity,HourlyPrecipIn,Conditions,Clouds,dailyrainin,SoftwareType,DateUTC
2013-01-29 00:03:00,34.0,33.0,30.04,WNW,292,0.0,0.0,95,0.00,,,0.16,,2013-01-29 05:03:00,
2013-01-29 00:12:00,34.0,33.0,30.04,WNW,292,0.0,0.0,95,0.00,,,0.16,,2013-01-29 05:12:00,
2013-01-29 00:22:00,34.0,33.0,30.05,WNW,292,0.0,0.0,95,0.00,,,0.16,,2013-01-29 05:22:00,
2013-01-29 00:32:00,33.0,32.0,30.04,WNW,292,0.0,0.0,95,0.00,,,0.17,,2013-01-29 05:32:00,
2013-01-29 00:42:00,33.0,32.0,30.04,WNW,292,0.0,0.0,95,0.00,,,0.17,,2013-01-29 05:42:00,
2013-01-29 00:52:00,33.0,32.0,30.03,WNW,292,0.0,0.0,95,0.00,,,0.17,,2013-01-29 05:52:00,
2013-01-29 01:02:00,33.0,32.0,30.04,WNW,292,0.0,0.0,95,0.00,,,0.17,,2013-01-29 06:02:00,
2013-01-29 01:11:00,33.0,32.0,30.04,WNW,292,0.0,0.0,95,0.00,,,0.17,,2013-01-29 06:11:00,
2013-01-29 01:21:00,33.0,32.0,30.04,WNW,292,0.0,0.0,95,0.00,,,0.17,,2013-01-29 06:21:00,
2013-01-29 01:32:00,33.0,32.0,30.04,WNW,292,0.0,0.0,95,0.00,,,0.17,,2013-01-29 06:32:00,
2013-01-29 01:42:00,33.0,32.0,30.04,WNW,292,0.0,0.0,95,0.00,,,0.17,,2013-01-29 06:42:00,
2013-01-29 01:52:00,33.0,32.0,30.05,WNW,292,0.0,0.0,95,0.00,,,0.17,,2013-01-29 06:52:00,
2013-01-29 02:02:00,33.0,32.0,30.05,WNW,292,0.0,0.0,95,0.00,,,0.17,,2013-01-29 07:02:00,
2013-01-29 02:11:00,33.0,32.0,30.05,WNW,292,0.0,0.0,95,0.00,,,0.17,,2013-01-29 07:11:00,
2013-01-29 02:21:00,33.0,32.0,30.05,WNW,292,0.0,0.0,96,0.00,,,0.17,,2013-01-29 07:21:00,
2013-01-29 02:32:00,33.0,32.0,30.05,WNW,292,0.0,0.0,96,0.00,,,0.17,,2013-01-29 07:32:00,
2013-01-29 02:42:00,33.0,32.0,30.05,WNW,292,0.0,0.0,96,0.00,,,0.17,,2013-01-29 07:42:00,
2013-01-29 02:52:00,33.0,32.0,30.06,WNW,292,0.0,0.0,96,0.00,,,0.17,,2013-01-29 07:52:00,
2013-01-29 03:02:00,33.0,32.0,30.06,WNW,292,0.0,0.0,96,0.00,,,0.17,,2013-01-29 08:02:00,
2013-01-29 03:11:00,33.0,32.0,30.06,WNW,292,0.0,0.0,96,0.00,,,0.17,,2013-01-29 08:11:00,
2013-01-29 03:21:00,33.0,32.0,30.06,WNW,292,0.0,0.0,95,0.00,,,0.17,,2013-01-29 08:21:00,
2013-01-29 03:31:00,33.0,32.0,30.06,WNW,292,0.0,0.0,95,0.00,,,0.17,,2013-01-29 08:31:00,
2013-01-29 03:42:00,33.0,32.0,30.06,WNW,292,0.0,0.0,95,0.00,,,0.17,,2013-01-29 08:42:00,
2013-01-29 03:52:00,33.0,32.0,30.07,WNW,292,0.0,0.0,96,0.00,,,0.17,,2013-01-29 08:52:00,
2013-01-29 04:02:00,33.0,32.0,30.07,WNW,292,0.0,0.0,96,0.00,,,0.17,,2013-01-29 09:02:00,
2013-01-29 04:11:00,33.0,32.0,30.07,WNW,292,0.0,0.0,96,0.00,,,0.17,,2013-01-29 09:11:00,
2013-01-29 04:21:00,33.0,32.0,30.06,WNW,292,0.0,0.0,95,0.00,,,0.17,,2013-01-29 09:21:00,
2013-01-29 04:32:00,33.0,32.0,30.06,WNW,292,0.0,0.0,96,0.00,,,0.17,,2013-01-29 09:32:00,
2013-01-29 04:42:00,33.0,32.0,30.06,WNW,292,0.0,0.0,96,0.00,,,0.17,,2013-01-29 09:42:00,
2013-01-29 04:52:00,33.0,32.0,30.07,WNW,292,0.0,0.0,95,0.00,,,0.17,,2013-01-29 09:52:00,
2013-01-29 05:01:00,32.0,31.0,30.08,WNW,292,0.0,0.0,96,0.00,,,0.17,,2013-01-29 10:01:00,
2013-01-29 05:11:00,32.0,31.0,30.08,WNW,292,0.0,0.0,96,0.00,,,0.17,,2013-01-29 10:11:00,
2013-01-29 05:21:00,32.0,31.0,30.08,NW,308,0.0,0.0,96,0.00,,,0.17,,2013-01-29 10:21:00,
2013-01-29 05:32:00,32.0,31.0,30.09,NE,37,5.0,5.0,96,0.00,,,0.17,,2013-01-29 10:32:00,
2013-01-29 05:42:00,32.0,31.0,30.09,NE,37,5.0,5.0,96,0.00,,,0.17,,2013-01-29 10:42:00,
2013-01-29 05:52:00,32.0,31.0,30.10,NE,56,0.0,3.0,96,0.00,,,0.17,,2013-01-29 10:52:00,
2013-01-29 06:02:00,32.0,31.0,30.11,ENE,63,0.0,3.0,96,0.00,,,0.17,,2013-01-29 11:02:00,
2013-01-29 06:12:00,32.0,31.0,30.11,ENE,63,0.0,3.0,96,0.00,,,0.17,,2013-01-29 11:12:00,
2013-01-29 06:22:00,32.0,31.0,30.11,ENE,63,0.0,3.0,96,0.00,,,0.17,,2013-01-29 11:22:00,
2013-01-29 06:32:00,31.0,30.0,30.12,ENE,63,0.0,0.0,96,0.00,,,0.17,,2013-01-29 11:32:00,
2013-01-29 06:42:00,31.0,30.0,30.12,ENE,63,0.0,0.0,96,0.00,,,0.17,,2013-01-29 11:42:00,
2013-01-29 06:53:00,31.0,30.0,30.12,ENE,63,0.0,0.0,96,0.00,,,0.17,,2013-01-29 11:53:00,
2013-01-29 07:02:00,31.0,30.0,30.12,ENE,62,0.0,0.0,96,0.00,,,0.17,,2013-01-29 12:02:00,
2013-01-29 07:12:00,31.0,30.0,30.12,ENE,62,0.0,0.0,96,0.00,,,0.17,,2013-01-29 12:12:00,
2013-01-29 07:22:00,31.0,30.0,30.14,ENE,63,0.0,0.0,96,0.00,,,0.17,,2013-01-29 12:22:00,
2013-01-29 07:33:00,30.0,29.0,30.14,ENE,63,0.0,0.0,96,0.00,,,0.17,,2013-01-29 12:33:00,
2013-01-29 07:43:00,30.0,29.0,30.14,ENE,63,0.0,0.0,96,0.00,,,0.17,,2013-01-29 12:43:00,
2013-01-29 07:52:00,30.0,29.0,30.15,ENE,63,0.0,0.0,96,0.00,,,0.17,,2013-01-29 12:52:00,
2013-01-29 08:02:00,30.0,29.0,30.16,ENE,62,0.0,0.0,96,0.00,,,0.17,,2013-01-29 13:02:00,
2013-01-29 08:12:00,30.0,29.0,30.16,ENE,62,0.0,0.0,96,0.00,,,0.17,,2013-01-29 13:12:00,
2013-01-29 08:22:00,30.0,29.0,30.15,ENE,63,0.0,0.0,96,0.00,,,0.17,,2013-01-29 13:22:00,
2013-01-29 08:32:00,31.0,30.0,30.17,ENE,63,0.0,0.0,96,0.00,,,0.17,,2013-01-29 13:32:00,
2013-01-29 08:42:00,31.0,30.0,30.17,ENE,63,0.0,0.0,96,0.00,,,0.17,,2013-01-29 13:42:00,
2013-01-29 08:52:00,31.0,30.0,30.18,ENE,63,0.0,0.0,96,0.00,,,0.17,,2013-01-29 13:52:00,
2013-01-29 09:02:00,31.0,30.0,30.19,ENE,63,0.0,0.0,96,0.00,,,0.17,,2013-01-29 14:02:00,
2013-01-29 09:12:00,32.0,31.0,30.19,ENE,63,0.0,0.0,96,0.00,,,0.17,,2013-01-29 14:12:00,
2013-01-29 09:22:00,32.0,31.0,30.19,ENE,63,0.0,0.0,96,0.00,,,0.17,,2013-01-29 14:22:00,
2013-01-29 09:33:00,32.0,31.0,30.19,ENE,63,0.0,0.0,96,0.00,,,0.17,,2013-01-29 14:33:00,
2013-01-29 09:43:00,32.0,31.0,30.19,ENE,63,0.0,0.0,96,0.00,,,0.17,,2013-01-29 14:43:00,
2013-01-29 09:53:00,32.0,31.0,30.19,ENE,63,0.0,0.0,96,0.00,,,0.17,,2013-01-29 14:53:00,
2013-01-29 10:02:00,33.0,31.0,30.19,NE,56,0.0,0.0,92,0.00,,,0.17,,2013-01-29 15:02:00,
2013-01-29 10:12:00,33.0,31.0,30.19,NE,56,0.0,0.0,92,0.00,,,0.17,,2013-01-29 15:12:00,
2013-01-29 10:22:00,33.0,31.0,30.19,NE,56,0.0,0.0,92,0.00,,,0.17,,2013-01-29 15:22:00,
2013-01-29 10:33:00,33.0,31.0,30.20,NE,56,0.0,0.0,91,0.01,,,0.18,,2013-01-29 15:33:00,
2013-01-29 10:43:00,33.0,31.0,30.20,NE,56,0.0,0.0,91,0.01,,,0.18,,2013-01-29 15:43:00,
2013-01-29 10:53:00,34.0,31.0,30.22,NE,43,0.0,0.0,89,0.01,,,0.18,,2013-01-29 15:53:00,
2013-01-29 11:03:00,35.0,32.0,30.20,NE,43,0.0,0.0,88,0.01,,,0.18,,2013-01-29 16:03:00,
2013-01-29 11:12:00,35.0,32.0,30.20,NE,43,0.0,0.0,88,0.01,,,0.18,,2013-01-29 16:12:00,
2013-01-29 11:23:00,35.0,32.0,30.21,NE,43,0.0,0.0,87,0.01,,,0.18,,2013-01-29 16:23:00,
2013-01-29 11:32:00,35.0,32.0,30.19,NE,43,0.0,0.0,87,0.00,,,0.18,,2013-01-29 16:32:00,
2013-01-29 11:43:00,35.0,32.0,30.19,NE,43,0.0,0.0,87,0.00,,,0.18,,2013-01-29 16:43:00,
2013-01-29 11:52:00,35.0,32.0,30.19,NE,43,0.0,0.0,87,0.00,,,0.18,,2013-01-29 16:52:00,
2013-01-29 12:03:00,36.0,32.0,30.19,NE,49,0.0,0.0,85,0.00,,,0.18,,2013-01-29 17:03:00,
2013-01-29 12:12:00,36.0,32.0,30.19,NE,49,0.0,0.0,85,0.00,,,0.18,,2013-01-29 17:12:00,
2013-01-29 12:22:00,36.0,32.0,30.19,NE,49,0.0,0.0,85,0.00,,,0.18,,2013-01-29 17:22:00,
2013-01-29 12:33:00,39.0,33.0,30.19,NE,49,0.0,0.0,80,0.00,,,0.18,,2013-01-29 17:33:00,
2013-01-29 12:42:00,39.0,33.0,30.19,NE,49,0.0,0.0,80,0.00,,,0.18,,2013-01-29 17:42:00,
2013-01-29 12:53:00,39.0,33.0,30.18,NE,48,0.0,0.0,80,0.00,,,0.18,,2013-01-29 17:53:00,
2013-01-29 13:04:00,39.0,33.0,30.18,NE,48,0.0,0.0,80,0.00,,,0.18,,2013-01-29 18:04:00,
2013-01-29 13:12:00,39.0,33.0,30.18,NE,48,0.0,0.0,80,0.00,,,0.18,,2013-01-29 18:12:00,
2013-01-29 13:22:00,39.0,34.0,30.19,NE,50,0.0,0.0,81,0.00,,,0.18,,2013-01-29 18:22:00,
2013-01-29 13:33:00,39.0,34.0,30.19,NE,49,0.0,0.0,81,0.00,,,0.18,,2013-01-29 18:33:00,
2013-01-29 13:42:00,39.0,34.0,30.19,NE,49,0.0,0.0,81,0.00,,,0.18,,2013-01-29 18:42:00,
2013-01-29 13:52:00,39.0,34.0,30.19,South,179,0.0,0.0,82,0.00,,,0.18,,2013-01-29 18:52:00,
2013-01-29 14:03:00,38.0,33.0,30.19,East,83,0.0,0.0,83,0.00,,,0.18,,2013-01-29 19:03:00,
2013-01-29 14:12:00,38.0,33.0,30.19,East,83,0.0,0.0,83,0.00,,,0.18,,2013-01-29 19:12:00,
2013-01-29 14:22:00,39.0,34.0,30.19,East,87,0.0,0.0,83,0.00,,,0.18,,2013-01-29 19:22:00,
2013-01-29 14:33:00,39.0,35.0,30.18,NE,45,0.0,5.0,84,0.00,,,0.18,,2013-01-29 19:33:00,
2013-01-29 14:42:00,39.0,35.0,30.18,NE,45,0.0,5.0,84,0.00,,,0.18,,2013-01-29 19:42:00,
2013-01-29 14:52:00,39.0,34.0,30.18,East,91,2.0,5.0,82,0.00,,,0.18,,2013-01-29 19:52:00,
2013-01-29 15:02:00,39.0,35.0,30.18,East,98,6.0,6.0,84,0.00,,,0.18,,2013-01-29 20:02:00,
2013-01-29 15:12:00,39.0,35.0,30.18,East,98,6.0,6.0,84,0.00,,,0.18,,2013-01-29 20:12:00,
2013-01-29 15:22:00,39.0,34.0,30.18,ENE,62,2.0,5.0,83,0.00,,,0.18,,2013-01-29 20:22:00,
2013-01-29 15:33:00,39.0,34.0,30.20,NNE,29,0.0,0.0,83,0.00,,,0.18,,2013-01-29 20:33:00,
2013-01-29 15:42:00,39.0,34.0,30.20,NNE,29,0.0,0.0,83,0.00,,,0.18,,2013-01-29 20:42:00,
2013-01-29 15:53:00,39.0,34.0,30.20,NNE,29,0.0,0.0,83,0.00,,,0.18,,2013-01-29 20:53:00,
2013-01-29 16:03:00,39.0,34.0,30.20,NNE,30,0.0,0.0,83,0.00,,,0.18,,2013-01-29 21:03:00,
2013-01-29 16:12:00,39.0,34.0,30.20,NNE,30,0.0,0.0,83,0.00,,,0.18,,2013-01-29 21:12:00,
2013-01-29 16:22:00,38.0,34.0,30.21,ENE,70,0.0,0.0,85,0.00,,,0.18,,2013-01-29 21:22:00,
2013-01-29 16:33:00,38.0,34.0,30.21,South,169,0.0,5.0,87,0.00,,,0.18,,2013-01-29 21:33:00,
2013-01-29 16:42:00,38.0,34.0,30.21,South,169,0.0,5.0,87,0.00,,,0.18,,2013-01-29 21:42:00,
2013-01-29 16:52:00,38.0,34.0,30.21,South,169,0.0,5.0,87,0.00,,,0.18,,2013-01-29 21:52:00,
2013-01-29 17:03:00,37.0,34.0,30.20,SE,135,0.0,5.0,87,0.00,,,0.18,,2013-01-29 22:03:00,
2013-01-29 17:12:00,37.0,34.0,30.20,SE,135,0.0,5.0,87,0.00,,,0.18,,2013-01-29 22:12:00,
2013-01-29 17:22:00,36.0,33.0,30.20,SE,138,0.0,5.0,90,0.00,,,0.18,,2013-01-29 22:22:00,
2013-01-29 17:33:00,36.0,33.0,30.20,East,84,0.0,7.0,90,0.00,,,0.18,,2013-01-29 22:33:00,
2013-01-29 17:42:00,36.0,33.0,30.20,East,84,0.0,7.0,90,0.00,,,0.18,,2013-01-29 22:42:00,
2013-01-29 17:53:00,36.0,34.0,30.20,East,92,0.0,7.0,91,0.00,,,0.18,,2013-01-29 22:53:00,
2013-01-29 18:02:00,36.0,34.0,30.22,East,91,0.0,7.0,91,0.00,,,0.18,,2013-01-29 23:02:00,
2013-01-29 18:12:00,36.0,34.0,30.22,East,91,0.0,7.0,91,0.00,,,0.18,,2013-01-29 23:12:00,
2013-01-29 18:23:00,36.0,34.0,30.22,East,91,0.0,7.0,91,0.00,,,0.18,,2013-01-29 23:23:00,
2013-01-29 18:33:00,36.0,34.0,30.22,East,91,0.0,7.0,91,0.00,,,0.18,,2013-01-29 23:33:00,
2013-01-29 18:42:00,36.0,34.0,30.22,East,91,0.0,7.0,91,0.00,,,0.18,,2013-01-29 23:42:00,
2013-01-29 18:52:00,36.0,34.0,30.24,South,179,0.0,0.0,92,0.00,,,0.18,,2013-01-29 23:52:00,
2013-01-29 19:03:00,36.0,34.0,30.23,South,181,0.0,0.0,92,0.00,,,0.18,,2013-01-30 00:03:00,
2013-01-29 19:12:00,36.0,34.0,30.23,South,181,0.0,0.0,92,0.00,,,0.18,,2013-01-30 00:12:00,
2013-01-29 19:22:00,36.0,34.0,30.23,South,181,0.0,0.0,92,0.00,,,0.18,,2013-01-30 00:22:00,
2013-01-29 19:32:00,36.0,34.0,30.21,SE,139,0.0,0.0,93,0.00,,,0.18,,2013-01-30 00:32:00,
2013-01-29 19:43:00,36.0,34.0,30.21,SE,139,0.0,0.0,93,0.00,,,0.18,,2013-01-30 00:43:00,
2013-01-29 19:53:00,37.0,35.0,30.20,ESE,102,0.0,0.0,93,0.00,,,0.18,,2013-01-30 00:53:00,
2013-01-29 20:02:00,37.0,35.0,30.19,ESE,102,0.0,0.0,93,0.00,,,0.18,,2013-01-30 01:02:00,
2013-01-29 20:12:00,37.0,35.0,30.19,ESE,102,0.0,0.0,93,0.00,,,0.18,,2013-01-30 01:12:00,
2013-01-29 20:22:00,37.0,35.0,30.20,ESE,102,0.0,0.0,93,0.00,,,0.18,,2013-01-30 01:22:00,
2013-01-29 20:32:00,37.0,35.0,30.21,ESE,102,0.0,0.0,93,0.00,,,0.18,,2013-01-30 01:32:00,
2013-01-29 20:42:00,37.0,35.0,30.21,ESE,102,0.0,0.0,93,0.00,,,0.18,,2013-01-30 01:42:00,
2013-01-29 20:52:00,37.0,35.0,30.21,ESE,102,0.0,0.0,93,0.00,,,0.18,,2013-01-30 01:52:00,
2013-01-29 21:02:00,37.0,35.0,30.21,ESE,102,0.0,0.0,93,0.00,,,0.18,,2013-01-30 02:02:00,
2013-01-29 21:12:00,37.0,35.0,30.21,ESE,102,0.0,0.0,93,0.00,,,0.18,,2013-01-30 02:12:00,
2013-01-29 21:22:00,37.0,35.0,30.21,ESE,102,0.0,0.0,93,0.00,,,0.18,,2013-01-30 02:22:00,
2013-01-29 21:33:00,36.0,34.0,30.20,ENE,66,1.0,0.0,93,0.00,,,0.18,,2013-01-30 02:33:00,
2013-01-29 21:42:00,36.0,34.0,30.20,ENE,66,1.0,0.0,93,0.00,,,0.18,,2013-01-30 02:42:00,
2013-01-29 21:53:00,35.0,33.0,30.21,NE,54,0.0,0.0,93,0.00,,,0.18,,2013-01-30 02:53:00,
2013-01-29 22:03:00,35.0,33.0,30.20,NE,55,0.0,0.0,94,0.00,,,0.18,,2013-01-30 03:03:00,
2013-01-29 22:12:00,35.0,33.0,30.20,NE,55,0.0,0.0,94,0.00,,,0.18,,2013-01-30 03:12:00,
2013-01-29 22:22:00,35.0,33.0,30.19,NE,55,0.0,0.0,94,0.00,,,0.18,,2013-01-30 03:22:00,
2013-01-29 22:32:00,35.0,34.0,30.20,NE,54,0.0,0.0,95,0.00,,,0.18,,2013-01-30 03:32:00,
2013-01-29 22:42:00,35.0,34.0,30.20,NE,54,0.0,0.0,95,0.00,,,0.18,,2013-01-30 03:42:00,
2013-01-29 22:52:00,35.0,34.0,30.19,NE,55,0.0,0.0,95,0.00,,,0.18,,2013-01-30 03:52:00,
2013-01-29 23:02:00,35.0,34.0,30.18,NE,55,0.0,0.0,95,0.00,,,0.18,,2013-01-30 04:02:00,
2013-01-29 23:12:00,35.0,34.0,30.18,NE,55,0.0,0.0,95,0.00,,,0.18,,2013-01-30 04:12:00,
2013-01-29 23:22:00,35.0,34.0,30.18,NE,54,0.0,0.0,95,0.00,,,0.18,,2013-01-30 04:22:00,
2013-01-29 23:32:00,35.0,34.0,30.18,NE,54,0.0,0.0,95,0.00,,,0.18,,2013-01-30 04:32:00,
2013-01-29 23:42:00,35.0,34.0,30.18,NE,54,0.0,0.0,95,0.00,,,0.18,,2013-01-30 04:42:00,
2013-01-29 23:52:00,35.0,34.0,30.18,NE,54,0.0,0.0,96,0.00,,,0.01,,2013-01-30 04:52:00,